IRIDIUM 135

Last updated on Tue Sep 22 2026 00:03:21 GMT+0000 (Coordinated Universal Time)

1 43070U 17083A 26264.29258309 -.00000004 00000+0 -83495-5 0 9990 2 43070 86.3908 281.8340 0002136 91.6929 268.4512 14.34217329457925
UTC large
Height (km)
Speed (km/s)
/
Latitude / Longitude
Inclination (degrees)
Orbital Period (minutes)
Azimuth
Elevation
Range (km)
Doppler Factor

Next 0 passes for location: London (51.5072 / 0.1276)

No passes found over London.
IRIDIUM 135